Weather History for Deadhorse, AK

Change the Weather History Date:

Wednesday, December 11, 2013

  Actual Average Record
Temperature  
Mean Temperature -11 °F -  
Max Temperature -7 °F -3 °F 16 °F (2007)
Min Temperature -15 °F -13 °F -40 °F (1990)
Degree Days  
Heating Degree Days 76    
Moisture  
Dew Point -17 °F    
Average Humidity 81    
Maximum Humidity 86    
Minimum Humidity 75    
Precipitation  
Precipitation 0.00 in - - ()
Sea Level Pressure  
Sea Level Pressure 30.86 in    
Wind  
Wind Speed 10 mph (West)    
Max Wind Speed 14 mph    
Max Gust Speed -    
Visibility 7 miles    
Events Snow    
Averages and records for this station are not official NWS values.
T = Trace of Precipitation, MM = Missing Value Source: NWS Daily Summary

Daily Weather History Graph

Daily Weather History Graph

Search for Another Location

Airport:

Trip Planner

Search our weather history database for the weather conditions in past years. The results will help you decide how hot, cold, wet, or windy it might be!

Date:

Astronomy

Dec. 31, 1969 Rise Set
Actual Time Sun does not rise Sun does not rise
Civil Twilight 10:38 AM AKST 2:55 PM AKST
Nautical Twilight 8:51 AM AKST 4:43 PM AKST
Astronomical Twilight 7:31 AM AKST 6:03 PM AKST
Moon 12:56 PM AKST (12/11) 3:35 AM AKST (12/11)
Length of Visible Light 4h 17m
Length of Day
0h 00m
Waxing Gibbous, 73% of the Moon is Illuminated
Dec 11
Waxing Gibbous
Dec 17
Full
Dec 25
Last Quarter
Jan 1
New
Jan 7
First Quarter

Hourly Weather History & Observations

Time (AKST) Temp. Windchill Dew Point Humidity Pressure Visibility Wind Dir Wind Speed Gust Speed Precip Events Conditions
12:53 AM -14.1 °F -32.6 °F -18.9 °F 79% 30.91 in 10.0 mi WSW 9.2 mph - N/A   Scattered Clouds
1:53 AM -14.1 °F -33.7 °F -18.9 °F 79% 30.90 in 9.0 mi West 10.4 mph - 0.00 in Snow Light Snow
2:53 AM -15.0 °F -35.9 °F -20.0 °F 78% 30.89 in 10.0 mi WSW 11.5 mph - 0.00 in   Mostly Cloudy
3:53 AM -11.0 °F -29.9 °F -17.0 °F 75% 30.89 in 8.0 mi West 10.4 mph - 0.00 in Snow Light Snow
4:31 AM -11.2 °F -30.1 °F -16.6 °F 77% 30.87 in 9.0 mi West 10.4 mph - 0.00 in Snow Light Snow
4:53 AM -9.9 °F -28.6 °F -15.0 °F 78% 30.88 in 9.0 mi West 10.4 mph - 0.00 in Snow Light Snow
5:40 AM -7.6 °F -25.7 °F -13.0 °F 77% 30.87 in 9.0 mi West 10.4 mph - 0.00 in Snow Light Snow
5:53 AM -8.0 °F -26.1 °F -13.0 °F 79% 30.87 in 9.0 mi West 10.4 mph - 0.00 in Snow Light Snow
6:13 AM -11.2 °F -30.1 °F -14.8 °F 84% 30.86 in 10.0 mi West 10.4 mph - 0.00 in   Scattered Clouds
6:48 AM -13.0 °F -33.4 °F -16.6 °F 84% 30.87 in 10.0 mi West 11.5 mph - 0.00 in   Scattered Clouds
6:53 AM -13.0 °F -32.4 °F -18.0 °F 78% 30.88 in 10.0 mi West 10.4 mph - 0.00 in   Scattered Clouds
7:53 AM -13.0 °F -34.3 °F -17.0 °F 82% 30.87 in 10.0 mi West 12.7 mph - N/A   Scattered Clouds
8:00 AM -13.0 °F -34.3 °F -16.6 °F 84% 30.86 in 10.0 mi West 12.7 mph - N/A   Overcast
8:53 AM -13.0 °F -34.3 °F -17.0 °F 82% 30.86 in 9.0 mi West 12.7 mph - N/A   Scattered Clouds
9:22 AM -14.8 °F -35.6 °F -18.4 °F 84% 30.85 in 10.0 mi West 11.5 mph - N/A   Overcast
9:53 AM -14.1 °F -34.7 °F -18.0 °F 82% 30.86 in 7.0 mi West 11.5 mph - N/A   Mostly Cloudy
10:26 AM -14.8 °F -34.6 °F -18.4 °F 84% 30.85 in 8.0 mi West 10.4 mph - N/A   Overcast
10:34 AM -14.8 °F -35.6 °F -18.4 °F 84% 30.85 in 8.0 mi West 11.5 mph - N/A   Overcast
10:53 AM -13.0 °F -34.3 °F -18.0 °F 78% 30.86 in 7.0 mi West 12.7 mph - N/A   Overcast
11:53 AM -11.9 °F -32.0 °F -17.0 °F 78% 30.86 in 4.0 mi West 11.5 mph - N/A   Overcast
12:23 PM -11.2 °F -32.1 °F -16.6 °F 77% 30.86 in 2.0 mi West 12.7 mph - N/A   Overcast
12:34 PM -11.2 °F -32.9 °F -16.6 °F 77% 30.86 in 2.5 mi West 13.8 mph - N/A   Overcast
12:53 PM -11.0 °F -32.7 °F -16.1 °F 78% 30.87 in 2.0 mi West 13.8 mph - N/A   Overcast
1:21 PM -11.2 °F -32.9 °F -16.6 °F 77% 30.85 in 3.0 mi West 13.8 mph - N/A   Overcast
1:23 PM -11.2 °F -32.1 °F -16.6 °F 77% 30.85 in 3.0 mi West 12.7 mph - N/A   Overcast
1:53 PM -13.0 °F -34.3 °F -18.0 °F 78% 30.85 in 5.0 mi West 12.7 mph - N/A   Overcast
2:53 PM -13.0 °F -33.4 °F -18.0 °F 78% 30.86 in 6.0 mi West 11.5 mph - N/A   Overcast
3:53 PM -11.9 °F -31.0 °F -17.0 °F 78% 30.85 in 7.0 mi West 10.4 mph - N/A   Overcast
4:53 PM -11.0 °F -27.6 °F -16.1 °F 78% 30.84 in 7.0 mi WNW 8.1 mph - N/A   Overcast
5:53 PM -11.0 °F -26.2 °F -15.0 °F 83% 30.84 in 4.0 mi West 6.9 mph - N/A   Overcast
6:00 PM -11.2 °F -27.8 °F -14.8 °F 84% 30.83 in 1.8 mi WNW 8.1 mph - N/A   Overcast
6:37 PM -11.2 °F -29.0 °F -14.8 °F 84% 30.84 in 2.0 mi WNW 9.2 mph - N/A   Overcast
6:53 PM -11.9 °F -27.3 °F -16.1 °F 82% 30.85 in 6.0 mi West 6.9 mph - N/A   Overcast
7:34 PM -11.2 °F -26.4 °F -14.8 °F 84% 30.84 in 7.0 mi West 6.9 mph - N/A   Overcast
7:53 PM -11.9 °F -28.7 °F -16.1 °F 82% 30.84 in 10.0 mi WNW 8.1 mph - N/A   Overcast
8:53 PM -14.1 °F -29.9 °F -18.0 °F 82% 30.84 in 10.0 mi WNW 6.9 mph - N/A   Overcast
9:00 PM -14.8 °F -30.8 °F -18.4 °F 84% 30.83 in 2.5 mi West 6.9 mph - N/A   Overcast
9:08 PM -13.0 °F -28.6 °F -16.6 °F 84% 30.83 in 1.0 mi West 6.9 mph - N/A   Overcast
9:53 PM -11.9 °F -28.7 °F -15.0 °F 86% 30.83 in 1.8 mi West 8.1 mph - N/A   Overcast
10:53 PM -13.0 °F -31.3 °F -17.0 °F 82% 30.83 in 1.8 mi WSW 9.2 mph - N/A   Overcast
11:29 PM -14.8 °F -30.8 °F -18.4 °F 84% 30.83 in 9.0 mi WSW 6.9 mph - N/A   Overcast
11:53 PM -14.1 °F -31.3 °F -18.0 °F 82% 30.84 in 10.0 mi WSW 8.1 mph - N/A   Overcast